sat.trackr.live / text

‹ back to catalog

STARLINK-36448

NORAD 67354 · 2026-003W

PAYLOAD ACTIVE UNKNOWN

§ Identity

Operator
Country
US
Launch date
2026-01-09
Launch site
AFETR
Launch vehicle
Mass (kg)
RCS (m²)

Purposes: comms

External: N2YO · Heavens-Above · Gunter

§ Orbital elements

Epoch: 2026-09-19T04:06:41.971104Z

Period
94.27 min
Inclination
42.9992°
Eccentricity
0.0002113
Mean motion
15.27582795 rev/d
Perigee alt
481.6 km
Apogee alt
484.5 km
Semi-major
6,861.2 km
B*
3.4893e-4
RAAN
214.4455°
Arg perigee
280.7687°
Mean anomaly
79.2927°
Rev number
3,841

§ Raw data

STARLINK-364481 67354U 26003W   26262.17131911  .00009353  00000+0  34893-3 0  99972 67354  42.9992 214.4455 0002113 280.7687  79.2927 15.27582795 38415

JSON: /api/v1/satellites/67354 · /tle

For live sub-satellite position, see the globe view (requires WebGL).

§ Visibility from observer

Set your observer location to see the next 7 days of passes ≥ 10°. The values pass through the URL so the page stays shareable.

No JS? Fill the form by hand. The geolocation button needs JavaScript.